Flag for Germany Weather past 2 weeks in Koblenz, Rhineland-Palatinate, Germany

Now
36 °F

Chilly.


Feels Like: 30 °F
Forecast: 43 / 50 °F
Wind: 7 mph from West

Location: Buechel

Current Time: Dec 21, 2014 at 3:43:11 AM

Latest Report: Dec 21, 2014 at 2:20 AM


Visibility: 5 mi

Pressure: 30.36 "Hg

Humidity: 93%

Dew point: 34 °F

Location of KoblenzLocation

Historic Weather in Koblenz — Graph

°F

Koblenz temperature yesterday

Maximum temperature yesterday: 39 °F (at 2:20 PM)
Minimum temperature yesterday: 34 °F (at 2:20 AM)
Average temperature yesterday: 37 °F

Past Weeks' High & Low Weather Summary

 TemperatureHumidityPressure
High50 °F (Dec 18, 12:20 PM)100% (Dec 6, 2:20 AM)30.36 "Hg (Dec 6, 2:20 AM)
Low28 °F (Dec 15, 5:20 AM)81% (Dec 14, 12:20 PM)29.50 "Hg (Dec 12, 3:20 PM)
Average37 °F95%29.98 "Hg
* Reported Dec 6 2:20 AM — Dec 21 2:20 AM, Koblenz, Weather by CustomWeather, © 2014

Note: Actual official high and low records may vary slightly from our data, if they occured in-between our weather recording intervals... More about our weather records

Advertising

Koblenz weather history for previous 24 hours

 ConditionsComfort  
Time TempWeatherWind HumidityBarometerVisibility
2:20 AM
Dec 21
36 °FChilly.7 mph93%30.36 "Hg5 mi
1:20 AM37 °FChilly.8 mph87%30.36 "Hg5 mi
12:20 AM37 °FChilly.8 mph87%30.33 "Hg6 mi
11:20 PM
Dec 20
39 °FChilly.12 mph81%30.33 "Hg6 mi
10:20 PM39 °FChilly.9 mph81%30.30 "Hg6 mi
9:20 PM39 °FChilly.12 mph81%30.27 "Hg6 mi
8:20 PM39 °FChilly.16 mph81%30.21 "Hg6 mi
7:20 PM39 °FChilly.14 mph81%30.21 "Hg6 mi
6:20 PM39 °FChilly.13 mph81%30.18 "Hg6 mi
5:20 PM39 °FChilly.13 mph81%30.15 "Hg6 mi
4:20 PM39 °FChilly.15 mph81%30.12 "Hg6 mi
3:20 PM39 °FChilly.15 mph81%30.12 "Hg6 mi
2:20 PM39 °FChilly.13 mph81%30.12 "Hg4 mi
1:20 PM37 °FChilly.14 mph93%30.12 "Hg5 mi
12:20 PM37 °FChilly.14 mph93%30.15 "Hg4 mi
11:20 AM37 °FChilly.14 mph93%30.18 "Hg4 mi
10:20 AM36 °FChilly.16 mph93%30.18 "Hg3 mi
9:20 AM36 °FChilly.16 mph93%30.18 "Hg4 mi
8:20 AM36 °FChilly.12 mph93%30.18 "Hg4 mi
7:20 AM34 °FChilly.12 mph100%30.18 "Hg4 mi
6:20 AM34 °FChilly.13 mph93%30.18 "Hg4 mi
5:20 AM34 °FChilly.12 mph93%30.18 "Hg2 mi
4:20 AM34 °FChilly.10 mph93%30.18 "Hg3 mi
3:20 AM34 °FChilly.10 mph93%30.18 "Hg4 mi
Weather by CustomWeather, © 2014

See weather overviewHow to use our weather pages